カタリナ-パンスターズ彗星

299P/Catalina-PanSTARRS (2015)

English version
Home page
Updated on November 13, 2016

---------------------------------------------------------------------

・ プロフィール

符号 299P/2014 D2
発見日 2014年2月27日
発見光度 18.4等、19.8等
発見者 R. E. Hill (Catalina Sky Survey), Pan-STARRS 1 telescope (Haleakala)

・ 写真集

・ 軌道要素

Epoch 2015 Feb. 27.0 TT = JDT 2457080.5
T 2015 Feb. 23.28773 TT                                 MPCW
q   3.1395359            (2000.0)            P               Q
n   0.10774800     Peri.  323.51111     -0.56090583     +0.80766903
a   4.3738435      Node   271.68138     -0.71002887     -0.58224793
e   0.2822020      Incl.   10.47985     -0.42572719     -0.09304885
P   9.15
From 254 observations 2005 Mar. 11-2016 Aug. 4, mean residual 0".5.

・ 星図

・ 光度変化

        m1 = 7.5 + 5 logΔ + 15.0 log r

---------------------------------------------------------------------

軌道要素はM.P.E.C. 2016-Q04に掲載されたものです。
星図はステラナビゲータ Ver.8 (アストロアーツ) で作成したものです。
光度グラフはComet for Windowsで作成したものです。

---------------------------------------------------------------------

Copyright(C) Seiichi Yoshida (comet@aerith.net). All rights reserved.